RYR8771 LIBC-LIMF

Flight info

Callsign RYR8771
Flight time N/A
Altitude 38000
Route CDC M729 AGNIS DCT DELER DCT PEVIR DCT EDOPA DCT MALOG DCT VEXUV DCT PNZ DCT RIFFI DCT ELVIN DCT LUNAK DCT RAVAL DCT MEDAL DCT GILIO DCT ELB DCT LAGEN
Aircraft B738/M-SDE3FGILRWY/SB1

Departure

Time 2026-05-05 16:34
Airport Crotone Sant'Anna Pythagoras Airport (LIBC)

Arrival

Time N/A
Airport Turin Airport (LIMF)
Time Latitude Longitude Altitude Speed Heading
2026-05-05 15:52 38.99697 17.07710 517 ft 0 kts 261°
2026-05-05 16:26 38.99700 17.07739 526 ft 2 kts 262°
2026-05-05 16:27 38.99703 17.07760 526 ft 2 kts 264°
2026-05-05 16:27 38.99704 17.07781 526 ft 2 kts 277°
2026-05-05 16:27 38.99696 17.07798 526 ft 2 kts 343°
2026-05-05 16:27 38.99692 17.07800 526 ft 0 kts 348°
2026-05-05 16:29 38.99668 17.07806 526 ft 8 kts 348°
2026-05-05 16:29 38.99627 17.07817 526 ft 3 kts 348°
2026-05-05 16:30 38.99606 17.07824 526 ft 1 kts 348°
2026-05-05 16:30 38.99607 17.07824 526 ft 0 kts
2026-05-05 16:30 38.99608 17.07826 526 ft 0 kts 17°
2026-05-05 16:31 38.99612 17.07833 526 ft 4 kts 43°
2026-05-05 16:31 38.99639 17.07897 526 ft 13 kts 70°
2026-05-05 16:31 38.99695 17.08002 525 ft 15 kts 15°
2026-05-05 16:31 38.99798 17.07996 524 ft 15 kts 351°
2026-05-05 16:32 38.99897 17.07970 526 ft 14 kts 346°
2026-05-05 16:32 39.00000 17.07945 527 ft 17 kts 352°
2026-05-05 16:32 39.00134 17.07918 528 ft 21 kts 350°
2026-05-05 16:32 39.00292 17.07883 528 ft 24 kts 351°
2026-05-05 16:33 39.00454 17.07850 529 ft 23 kts 351°
2026-05-05 16:33 39.00566 17.07826 530 ft 1 kts 335°
2026-05-05 16:33 39.00564 17.07817 530 ft 1 kts 245°
2026-05-05 16:33 39.00555 17.07816 530 ft 2 kts 185°
2026-05-05 16:34 39.00473 17.07828 529 ft 40 kts 169°
2026-05-05 16:34 38.99930 17.07965 526 ft 115 kts 168°
2026-05-05 16:34 38.98953 17.08204 704 ft 157 kts 171°
2026-05-05 16:34 38.97895 17.08488 1596 ft 159 kts 171°
2026-05-05 16:35 38.96782 17.08771 2378 ft 166 kts 172°
2026-05-05 16:35 38.95553 17.09082 2832 ft 198 kts 171°
2026-05-05 16:35 38.94099 17.09451 3070 ft 228 kts 171°
2026-05-05 16:35 38.92507 17.09860 3546 ft 243 kts 170°
2026-05-05 16:36 38.90801 17.10298 3952 ft 264 kts 170°
2026-05-05 16:36 38.88953 17.10435 4707 ft 270 kts 193°
2026-05-05 16:36 38.87262 17.09456 5644 ft 270 kts 220°
2026-05-05 16:36 38.86100 17.07571 6515 ft 274 kts 246°
2026-05-05 16:37 38.85552 17.05231 7385 ft 275 kts 259°
2026-05-05 16:37 38.85191 17.02803 8284 ft 278 kts 261°
2026-05-05 16:37 38.84862 17.00374 9161 ft 281 kts 262°
2026-05-05 16:37 38.84527 16.97886 10042 ft 285 kts 262°
2026-05-05 16:38 38.84178 16.95340 10639 ft 298 kts 262°
2026-05-05 16:38 38.83798 16.92597 10826 ft 325 kts 261°
2026-05-05 16:38 38.83383 16.89659 11254 ft 340 kts 261°
2026-05-05 16:38 38.82952 16.86657 12038 ft 344 kts 261°
2026-05-05 16:39 38.82514 16.83636 12871 ft 346 kts 261°
2026-05-05 16:39 38.82069 16.80581 13657 ft 350 kts 261°
2026-05-05 16:39 38.81617 16.77493 14382 ft 354 kts 261°
2026-05-05 16:39 38.81162 16.74391 15140 ft 356 kts 261°
2026-05-05 16:40 38.80711 16.71318 15901 ft 357 kts 261°
2026-05-05 16:40 38.80242 16.68128 16653 ft 359 kts 261°
2026-05-05 16:40 38.79776 16.64967 17397 ft 362 kts 261°
2026-05-05 16:40 38.79307 16.61791 18134 ft 364 kts 261°
2026-05-05 16:41 38.78833 16.58592 18783 ft 367 kts 261°
2026-05-05 16:41 38.78356 16.55369 19403 ft 369 kts 261°
2026-05-05 16:41 38.77873 16.52120 20001 ft 372 kts 262°